Temperature
19 20 21 21 21 20 20 19 19 19 19 19 18 18 18 19 19 19 19 20 20 20 20 20 20 20 20 20 20 20 19 19 19 19 19 19 19 18 18 18 18 18 18 18
20 20 21 21 21 20 20 20 19 19 19 18 18 18 18 18 18 18 19 19 19 20 20 20 20 20 20 20 20 20 19 19 19 18 18 18 18 18 18 18 18 18 17 17
18 19 20 20 20 20 20 19 19 19 19 17 16 17 17 18 18 18 18 19 19 19 19 20 20 20 19 19 19 19 19 19 18 18 18 18 18 18 18 18 17 17 17 17
16 19 20 19 19 20 19 18 18 18 17 16 17 17 18 18 18 18 18 18 18 19 19 19 19 19 19 19 19 19 19 19 18 18 18 18 18 18 17 17 17 17 17 17
15 17 18 19 19 18 18 18 17 17 16 16 16 17 17 17 17 17 17 18 18 18 18 18 18 18 18 18 18 18 18 18 18 18 17 17 17 17 17 17 17 17 17 17
15 18 18 19 19 19 18 18 17 16 16 16 16 15 16 17 17 17 17 17 17 17 18 18 18 18 18 18 18 18 17 17 17 17 17 17 17 17 17 17 17 17 17 17
15 16 17 17 18 19 19 18 17 17 16 16 16 16 17 17 17 17 17 17 17 17 17 17 17 17 17 17 17 17 17 17 17 17 17 17 17 16 16 16 16 16 16 16
13 16 16 17 17 17 17 17 17 17 17 17 17 17 17 17 17 17 16 16 16 17 17 17 17 17 17 17 17 17 16 16 16 16 16 16 16 16 16 16 16 16 16 16
13 14 15 16 16 17 18 17 17 18 17 17 17 17 17 16 16 16 16 16 16 16 16 16 16 16 17 17 16 16 16 16 16 16 16 16 16 16 15 15 15 15 15 15
13 14 15 16 17 17 18 18 18 18 17 17 16 16 16 16 16 16 15 15 15 15 15 16 16 16 16 16 16 16 15 15 15 15 15 15 15 15 15 15 15 14 14 14
13 13 15 16 16 17 17 17 17 17 17 17 16 16 15 15 15 15 15 15 15 15 15 15 15 15 16 16 15 15 15 15 15 15 15 15 15 14 14 14 14 14 14 14
13 14 13 15 16 16 16 16 16 16 16 16 15 15 15 15 15 15 15 15 15 14 14 14 14 15 15 15 15 15 15 15 14 14 14 14 14 14 14 14 14 14 14 13
16 16 16 16 16 16 16 16 16 15 15 15 15 15 15 15 14 14 14 14 14 14 14 14 14 14 14 14 14 14 14 14 14 14 14 13 13 13 13 13 13 13 13 13
16 15 15 15 15 15 15 15 15 15 15 15 15 14 14 14 14 14 14 14 14 14 14 13 13 14 13 13 13 13 13 13 13 13 13 13 13 13 13 13 13 13 13 13
15 15 15 15 15 15 15 14 14 14 14 14 14 14 14 14 13 13 13 13 13 13 13 13 13 13 13 13 13 13 13 13 13 13 13 13 13 13 13 12 12 12 12 12
15 15 14 14 14 14 14 14 14 14 13 13 13 13 13 13 13 13 13 12 13 12 12 12 12 12 13 13 13 13 13 13 13 13 13 13 12 12 12 12 12 12 12 12
14 14 14 14 14 14 14 14 14 13 13 13 13 13 13 12 12 12 12 12 12 12 12 12 12 12 12 12 12 12 12 12 12 12 12 12 12 12 12 12 12 12 11 11
14 14 14 13 13 13 13 13 13 13 13 13 12 12 12 12 12 12 12 11 11 11 11 11 11 11 12 12 12 12 12 12 12 12 12 12 12 12 12 11 11 11 11 11
14 13 13 13 13 13 13 13 13 12 12 12 12 12 12 12 11 11 11 11 11 11 11 11 11 11 11 11 11 11 11 11 11 11 11 11 11 11 11 11 11 11 11 11
13 13 13 13 13 12 12 12 12 12 12 12 12 11 11 11 11 11 11 11 11 11 11 11 11 11 11 11 11 11 11 11 11 11 11 11 11 11 11 10 10 10 10 10
12 12 12 12 12 12 12 12 12 12 11 11 11 11 11 11 11 11 11 11 11 11 11 11 11 11 11 11 11 11 11 10 10 10 10 10 10 10 10 10 10 10 10 10
12 12 12 12 11 11 11 11 11 11 11 11 11 11 11 11 11 11 11 11 11 11 11 11 11 11 11 11 10 10 10 10 10 10 10 10 10 10 9 9 9 9 9 9
11 11 11 11 11 11 11 11 11 11 11 11 11 11 11 11 10 10 10 10 10 10 10 10 10 10 10 10 10 10 10 9 9 9 9 9 9 9 9 9 9 9 9 9
11 11 11 11 11 11 11 11 10 10 10 10 10 10 10 10 10 10 10 10 10 10 10 10 10 10 10 10 10 9 9 9 9 9 9 9 9 8 8 8 8 8 8 8
11 11 11 11 11 10 10 10 10 10 10 10 10 10 10 10 10 10 10 10 10 10 10 9 9 9 9 9 9 9 9 9 9 9 8 8 8 8 8 8 8 8 8 8
10 10 10 10 10 10 10 10 10 10 9 9 9 9 9 9 9 9 9 9 9 9 9 9 9 9 9 9 8 8 8 8 8 8 8 8 8 8 8 8 8 8 8 8
10 10 10 10 10 10 10 10 9 9 9 9 9 9 9 9 9 9 9 9 9 9 9 9 9 9 8 8 8 8 8 8 8 8 8 7 7 7 7 7 7 7 7 7
Wind_Speed
2 2 3 2 3 4 4 7 7 6 6 6 4 3 2 1 2 4 4 3 3 2 2 2 2 2 3 3 3 3 3 3 4 3 3 3 3 3 4 4 4 3 2 2
1 1 1 0 1 3 3 3 3 2 4 3 1 1 1 1 2 3 2 1 2 2 2 1 1 2 2 2 3 3 4 4 3 2 3 3 3 3 3 3 3 2 3 3
2 2 2 2 3 4 2 1 4 4 5 1 0 1 3 2 2 2 1 1 1 0 0 1 1 2 2 3 3 4 4 3 3 4 3 3 3 3 3 3 3 3 4 3
2 3 3 7 2 3 5 1 1 1 1 3 2 1 1 2 2 1 1 1 0 1 1 0 0 1 2 2 3 3 2 2 2 3 3 3 2 3 3 3 3 3 3 3
4 4 4 4 1 3 4 2 1 2 2 2 3 4 2 2 1 0 1 1 1 1 1 1 0 1 2 2 2 3 3 3 3 3 3 2 2 3 3 2 2 2 2 2
4 4 6 6 3 1 4 2 3 3 4 3 3 1 3 2 1 2 1 1 1 1 1 0 1 1 1 0 1 3 4 4 3 4 4 4 4 3 2 2 2 2 2 2
4 3 5 5 4 1 3 6 3 4 4 4 3 4 3 1 1 1 1 2 1 0 0 1 1 1 1 1 3 4 3 3 3 4 4 4 3 3 2 2 2 2 3 3
4 3 6 3 1 4 5 2 2 3 3 3 2 1 1 1 1 1 2 2 1 1 2 2 1 2 2 3 4 3 2 2 3 3 3 3 3 3 3 3 3 3 3 3
6 5 4 3 3 3 2 2 2 3 3 3 2 1 1 1 1 1 2 2 2 1 2 2 2 2 3 4 3 2 2 3 4 4 3 3 4 3 3 3 3 3 3 3
1 4 4 4 2 2 0 1 2 3 3 3 3 2 1 1 1 2 2 2 2 1 2 3 3 2 3 3 2 1 2 3 4 3 3 3 3 3 4 4 4 3 3 4
2 4 4 4 3 2 1 1 1 1 1 3 3 2 2 2 2 2 2 2 2 2 2 4 4 4 3 2 1 1 2 3 3 3 3 3 3 3 4 4 5 5 4 4
5 6 4 5 4 1 1 1 1 1 1 1 2 3 2 3 3 2 2 2 2 2 3 4 3 4 4 2 1 1 2 3 2 2 2 2 2 2 3 4 4 5 5 5
5 4 4 4 2 1 1 1 1 1 2 2 2 2 2 2 3 2 2 2 2 3 3 4 4 4 4 3 2 2 3 3 3 2 2 2 2 2 2 2 2 2 3 4
3 1 2 3 3 3 2 2 1 2 2 2 2 2 2 2 2 2 3 4 3 3 3 3 3 4 4 2 2 2 3 3 2 2 2 2 3 3 2 2 2 2 2 3
3 3 4 3 2 2 2 1 1 2 3 3 2 2 2 2 3 4 3 3 2 2 3 3 3 4 3 2 2 2 2 2 2 2 2 2 2 2 2 2 2 2 1 1
2 1 1 2 3 3 2 2 3 4 3 3 3 3 3 3 3 3 3 2 2 4 4 4 4 5 4 2 2 2 2 3 1 1 1 1 1 2 2 2 2 2 2 1
1 2 2 2 3 3 3 4 4 4 4 4 4 3 2 1 1 3 3 3 3 4 4 4 5 4 3 2 2 2 1 2 1 1 1 1 1 2 2 2 2 2 2 1
4 5 5 5 4 4 4 3 3 3 3 3 2 1 1 2 3 4 4 3 3 3 4 4 4 3 3 3 2 1 1 1 1 1 1 1 1 1 0 1 1 1 1 1
1 2 3 3 3 3 3 3 3 3 2 2 1 2 2 3 3 4 3 2 3 4 5 4 4 2 3 3 1 1 1 0 1 1 1 1 1 1 0 0 1 1 0 0
2 2 2 2 2 1 1 1 1 2 2 1 1 1 2 3 2 2 1 2 4 4 4 4 3 2 2 3 2 1 1 1 1 0 0 0 0 0 1 1 0 1 1 0
3 2 2 1 2 2 1 1 1 2 2 1 1 2 2 3 2 1 1 3 5 4 4 4 3 3 2 2 2 1 1 1 1 1 1 1 0 1 1 1 1 1 1 0
3 3 2 2 2 3 3 2 1 1 2 1 1 1 1 2 2 2 2 3 4 4 3 2 2 2 2 3 2 2 1 1 1 1 1 0 0 0 1 1 1 1 1 0
2 2 2 2 1 2 3 3 2 1 1 1 1 1 2 2 2 1 3 3 3 3 2 1 1 1 3 2 2 2 1 1 1 0 0 0 0 0 0 0 0 0 0 0
2 2 2 1 2 2 3 4 3 2 2 2 2 2 2 1 2 2 3 3 2 2 1 1 1 2 3 2 2 2 2 1 1 1 1 1 1 1 1 1 1 1 1 1
2 2 2 2 2 2 2 3 3 3 3 3 3 3 1 1 1 2 2 1 1 1 1 2 3 3 3 2 2 2 2 1 2 2 2 1 1 1 1 1 1 1 1 1
2 2 2 2 2 2 1 1 1 2 2 2 3 3 2 2 2 2 2 2 2 2 2 2 2 2 2 2 2 2 2 2 2 2 2 2 2 2 2 2 2 2 2 2
2 2 2 2 2 1 1 0 0 1 1 0 1 2 2 2 2 2 3 2 2 2 3 3 3 3 3 3 3 3 3 2 2 2 2 2 2 2 2 2 2 2 2 2
Wind_Direction
201 207 159 170 191 175 174 181 183 217 222 257 247 223 207 130 84 79 70 67 82 96 86 83 102 120 145 159 159 158 160 192 214 212 208 206 206 210 215 221 225 219 225 238
66 27 117 194 252 195 198 180 196 211 254 271 251 128 108 117 108 97 90 76 65 69 80 94 125 143 148 163 169 159 172 198 206 207 210 215 217 206 206 217 224 218 225 231
213 297 52 273 238 188 168 169 170 203 241 246 111 179 188 163 117 121 128 103 91 83 219 233 213 174 175 178 170 166 183 199 202 203 210 222 222 211 216 220 215 221 232 227
131 92 215 242 279 146 137 140 174 215 243 193 187 203 157 126 131 120 66 16 254 217 209 245 243 172 156 156 159 168 183 196 202 201 209 205 201 216 231 228 216 220 231 234
126 163 259 290 253 153 150 221 230 179 147 121 97 57 17 16 68 190 255 275 270 247 203 156 150 152 134 155 164 182 202 208 208 195 194 193 203 218 223 217 224 230 234 232
124 151 216 243 287 281 118 250 244 167 156 142 92 89 259 282 335 349 346 321 301 336 74 135 220 135 124 166 187 225 224 219 216 208 205 208 214 221 221 212 226 234 253 246
143 188 250 263 292 68 162 240 229 176 169 165 181 209 231 266 305 311 320 312 310 343 120 257 251 143 168 245 265 263 246 222 221 217 215 214 214 215 208 212 230 241 249 253
144 174 243 298 66 172 217 251 177 180 179 172 178 161 164 210 268 329 343 330 319 316 312 306 263 173 203 245 260 271 268 254 246 236 229 223 206 216 210 206 221 243 253 265
185 208 256 291 244 252 197 192 209 183 183 160 169 224 247 276 291 318 323 318 304 276 304 314 284 206 212 251 256 250 258 261 259 245 230 220 210 216 215 214 223 237 242 256
225 277 292 306 314 331 272 207 214 182 178 172 194 222 249 272 297 315 310 312 313 307 313 309 300 281 263 267 250 214 264 268 260 246 238 231 216 210 215 220 226 233 241 251
248 281 315 312 291 289 356 38 61 87 195 184 178 214 230 250 270 278 291 299 307 291 294 301 311 310 306 298 261 242 261 263 262 254 235 232 229 223 219 225 222 222 232 232
226 231 213 257 268 259 55 26 19 40 342 287 191 209 229 248 265 273 279 291 301 303 294 293 301 308 307 295 253 228 269 274 266 263 256 240 237 257 242 231 230 227 229 229
222 221 221 256 272 250 221 266 277 257 239 255 256 233 234 258 269 276 283 290 280 275 278 283 290 296 304 301 277 237 253 264 265 257 253 248 234 224 255 289 290 248 241 236
230 186 254 258 252 250 234 242 263 288 276 255 249 259 255 268 277 268 270 273 272 278 292 297 299 300 304 303 290 281 273 265 262 252 245 239 234 229 226 231 257 286 277 254
271 226 226 246 255 264 244 231 271 282 284 290 275 260 250 249 256 261 266 272 283 295 300 305 304 297 302 301 290 284 279 276 264 260 251 238 236 233 232 232 236 258 296 313
282 302 234 230 244 259 258 245 247 261 267 271 275 270 257 243 254 272 275 268 268 274 283 291 288 287 294 295 273 270 278 287 279 256 243 241 236 229 228 224 226 237 242 251
202 258 256 256 258 267 265 255 241 246 253 252 250 244 234 240 285 288 284 275 259 263 272 277 284 294 295 284 261 259 268 281 289 298 272 245 242 227 223 218 215 232 253 247
224 235 236 228 239 257 275 277 263 255 247 247 242 216 207 227 255 266 269 268 267 277 281 278 286 297 297 290 272 266 259 281 291 290 310 327 298 265 187 203 213 219 275 256
259 263 274 266 258 254 267 277 279 276 266 249 234 243 245 250 254 262 259 242 253 272 281 281 278 276 286 281 269 256 222 264 341 343 344 5 18 18 34 302 292 289 273 147
332 311 305 303 301 270 285 303 306 301 287 255 231 267 288 286 281 283 258 250 257 263 272 269 260 260 267 268 247 217 201 188 200 287 344 14 3 344 344 333 341 325 308 270
13 9 7 355 339 337 316 297 296 297 303 277 211 234 256 281 300 314 309 291 292 289 276 265 256 247 234 225 217 199 200 201 209 231 248 262 284 319 335 343 348 341 340 285
15 15 8 -0 356 341 333 328 311 309 326 331 301 260 266 290 302 309 268 259 278 292 283 269 263 234 197 172 165 163 167 175 185 188 187 209 276 330 339 4 356 346 1 338
3 5 358 351 344 331 342 346 344 333 321 302 284 264 250 255 251 248 281 287 286 296 293 281 274 163 142 135 132 130 125 113 89 94 167 209 261 285 302 336 347 357 350 314
348 353 353 359 23 19 357 340 344 343 327 305 299 277 250 257 286 276 267 286 307 317 332 348 54 91 115 122 121 114 109 104 83 58 49 41 32 24 8 2 10 16 9 14
320 322 337 6 7 336 318 328 350 356 357 354 348 342 321 248 249 305 335 350 16 52 37 29 48 73 91 96 99 97 97 96 88 79 66 45 37 36 24 16 17 19 21 22
321 322 311 290 281 285 299 337 1 353 5 7 0 1 10 24 35 36 33 30 42 56 60 58 61 75 80 88 96 98 95 84 76 73 70 57 42 37 31 26 26 30 31 33
346 345 347 352 344 334 345 37 32 327 314 313 343 354 8 26 43 45 45 43 48 48 49 51 57 65 71 76 78 74 69 67 66 68 69 63 51 42 35 36 32 30 29 36
Height
1495 1491 1491 1493 1495 1496 1500 1504 1510 1505 1503 1496 1494 1493 1492 1492 1492 1492 1492 1493 1494 1495 1495 1497 1498 1500 1502 1504 1505 1507 1508 1509 1510 1511 1512 1513 1514 1515 1516 1516 1517 1517 1517 1517
1495 1492 1492 1494 1493 1494 1495 1497 1499 1499 1499 1493 1492 1492 1492 1492 1492 1493 1493 1494 1494 1495 1495 1496 1497 1499 1500 1502 1503 1504 1505 1507 1508 1509 1509 1510 1511 1512 1512 1513 1513 1514 1514 1514
1504 1497 1494 1502 1494 1493 1494 1494 1495 1499 1496 1492 1492 1491 1492 1492 1492 1493 1493 1494 1494 1495 1495 1496 1497 1498 1499 1500 1501 1502 1503 1504 1505 1505 1506 1507 1507 1508 1509 1509 1510 1510 1510 1510
1507 1503 1512 1500 1487 1487 1491 1492 1492 1492 1491 1491 1491 1491 1492 1492 1493 1493 1493 1494 1494 1494 1495 1495 1496 1497 1497 1499 1499 1500 1501 1501 1502 1503 1503 1503 1504 1504 1505 1506 1506 1506 1506 1507
1512 1512 1506 1495 1488 1488 1491 1493 1490 1490 1490 1491 1491 1491 1492 1493 1493 1494 1493 1493 1493 1493 1494 1494 1494 1495 1495 1496 1497 1497 1498 1498 1499 1499 1500 1500 1500 1501 1502 1503 1503 1503 1503 1502
1509 1509 1511 1496 1486 1484 1488 1495 1488 1488 1490 1490 1491 1495 1494 1492 1492 1493 1492 1492 1492 1492 1492 1492 1492 1493 1493 1493 1494 1494 1495 1495 1496 1497 1497 1497 1497 1498 1499 1499 1499 1499 1499 1499
1507 1507 1501 1489 1485 1485 1498 1495 1486 1486 1488 1489 1490 1491 1491 1491 1491 1492 1491 1491 1491 1491 1490 1491 1491 1491 1491 1491 1491 1492 1492 1493 1493 1493 1493 1494 1494 1494 1495 1495 1495 1495 1495 1495
1507 1507 1503 1486 1485 1488 1489 1484 1484 1485 1486 1487 1488 1489 1489 1489 1490 1490 1490 1490 1490 1489 1489 1489 1489 1489 1489 1489 1489 1489 1489 1489 1490 1490 1490 1490 1490 1490 1491 1491 1491 1491 1491 1490
1498 1497 1489 1485 1485 1484 1483 1483 1483 1484 1486 1487 1487 1488 1488 1488 1489 1489 1489 1489 1488 1488 1487 1487 1487 1487 1486 1486 1486 1486 1486 1486 1486 1486 1486 1485 1486 1485 1486 1487 1487 1486 1486 1485
1493 1489 1486 1485 1484 1483 1483 1483 1483 1484 1485 1486 1486 1487 1487 1487 1487 1487 1487 1487 1486 1486 1484 1484 1484 1484 1483 1483 1483 1482 1481 1482 1482 1482 1481 1481 1481 1481 1482 1482 1482 1482 1481 1480
1491 1487 1485 1484 1483 1483 1482 1482 1482 1483 1484 1484 1484 1485 1485 1485 1485 1485 1485 1485 1484 1483 1482 1481 1481 1480 1480 1480 1479 1478 1478 1479 1479 1478 1477 1477 1477 1477 1477 1477 1478 1477 1477 1477
1488 1484 1484 1483 1483 1483 1482 1482 1482 1482 1483 1483 1484 1484 1484 1483 1483 1483 1483 1482 1481 1481 1480 1479 1478 1477 1477 1476 1476 1475 1475 1475 1475 1474 1474 1473 1473 1473 1473 1473 1473 1473 1473 1473
1481 1481 1482 1481 1482 1482 1481 1481 1481 1481 1481 1482 1482 1482 1482 1481 1481 1481 1480 1480 1479 1478 1477 1476 1475 1474 1473 1473 1473 1472 1472 1471 1471 1471 1470 1470 1469 1469 1469 1469 1469 1469 1469 1469
1479 1480 1479 1479 1480 1480 1480 1480 1480 1480 1480 1479 1479 1479 1479 1478 1478 1478 1478 1477 1477 1476 1474 1473 1472 1471 1471 1471 1471 1470 1470 1469 1469 1468 1467 1467 1466 1466 1466 1465 1465 1465 1465 1465
1477 1478 1477 1477 1477 1477 1477 1477 1477 1477 1477 1476 1476 1476 1475 1475 1474 1475 1475 1475 1474 1473 1471 1470 1469 1468 1468 1468 1467 1467 1467 1466 1466 1465 1465 1464 1464 1463 1463 1463 1462 1462 1461 1461
1475 1475 1475 1475 1474 1474 1474 1474 1473 1473 1473 1473 1472 1472 1472 1472 1471 1471 1471 1471 1470 1469 1468 1467 1466 1466 1465 1465 1464 1464 1464 1463 1463 1462 1462 1461 1461 1460 1460 1459 1459 1458 1458 1457
1473 1473 1473 1473 1472 1472 1471 1471 1470 1470 1469 1469 1469 1469 1468 1468 1467 1467 1467 1467 1467 1466 1465 1464 1463 1463 1462 1462 1461 1460 1460 1460 1460 1459 1459 1458 1457 1457 1457 1456 1456 1455 1455 1454
1471 1471 1471 1470 1470 1469 1469 1468 1467 1467 1466 1466 1466 1465 1465 1464 1464 1463 1463 1463 1463 1462 1461 1461 1461 1460 1459 1459 1458 1457 1457 1457 1456 1456 1455 1455 1455 1455 1454 1454 1453 1453 1452 1452
1469 1469 1468 1468 1467 1467 1466 1465 1465 1464 1464 1463 1463 1462 1462 1461 1461 1460 1459 1459 1459 1458 1458 1458 1458 1457 1457 1456 1456 1455 1454 1454 1454 1454 1454 1453 1453 1453 1452 1451 1451 1450 1450 1449
1466 1466 1466 1466 1465 1465 1464 1464 1463 1463 1462 1461 1460 1460 1459 1459 1458 1457 1456 1456 1456 1456 1455 1455 1455 1454 1454 1453 1453 1453 1452 1452 1452 1452 1452 1452 1451 1451 1450 1449 1449 1448 1448 1447
1465 1464 1464 1464 1464 1463 1463 1463 1462 1461 1460 1460 1459 1458 1458 1457 1456 1455 1454 1454 1454 1453 1453 1452 1451 1451 1451 1451 1451 1451 1451 1450 1450 1450 1450 1449 1449 1448 1448 1447 1446 1446 1446 1446
1465 1464 1464 1463 1463 1462 1462 1462 1461 1460 1459 1458 1457 1456 1456 1455 1455 1454 1453 1453 1452 1451 1450 1449 1449 1448 1448 1448 1448 1449 1448 1448 1448 1448 1448 1447 1447 1446 1445 1444 1444 1444 1444 1444
1465 1464 1463 1463 1462 1462 1461 1461 1460 1459 1457 1456 1455 1455 1454 1453 1453 1452 1451 1451 1450 1449 1448 1447 1446 1446 1446 1446 1446 1446 1446 1447 1446 1446 1446 1445 1445 1444 1443 1443 1443 1442 1443 1443
1466 1465 1463 1463 1462 1461 1460 1459 1459 1457 1456 1455 1454 1453 1452 1451 1451 1451 1450 1450 1449 1448 1446 1445 1444 1444 1444 1445 1445 1445 1445 1445 1444 1444 1444 1444 1443 1443 1443 1442 1441 1441 1441 1441
1466 1465 1464 1463 1462 1461 1460 1459 1457 1456 1455 1453 1452 1451 1450 1450 1450 1449 1449 1448 1447 1446 1445 1444 1444 1443 1443 1443 1443 1444 1444 1443 1443 1442 1443 1443 1442 1442 1442 1441 1440 1440 1440 1439
1465 1464 1463 1462 1461 1460 1459 1458 1457 1456 1454 1453 1451 1451 1450 1449 1449 1448 1447 1447 1446 1445 1444 1443 1443 1443 1443 1443 1443 1443 1443 1443 1442 1442 1441 1442 1442 1441 1441 1440 1439 1439 1438 1438
1464 1463 1462 1461 1460 1459 1459 1458 1457 1455 1454 1453 1452 1451 1450 1449 1448 1448 1447 1447 1446 1445 1445 1444 1444 1443 1443 1443 1442 1442 1442 1442 1442 1442 1441 1441 1441 1440 1440 1439 1438 1437 1437 1437